Location: Ago
(8.4667°N, 4.4833°E)
Time: 23:34:20
(UTC+00:00)

Ariane H10 - Pass Details

Date: 18 September 2020
Orbit: 153 x 5942 km, 7.0° (Epoch: 20 October)

Event Time Altitude Azimuth Distance (km) Brightness Sun altitude
Rises 20:00:17 0° 271° (W) 6,861 8.4 -35.4°
Reaches altitude 10° 20:06:52 10° 267° (W) 4,569 7.2 -37.0°
Enters shadow 20:14:49 37° 239° (WSW) 1,598 4.3 -38.9°
